Flag for U.S.A. Weather past 2 weeks in Stillwater, Minnesota, U.S.A.

Now
55 °F

Overcast.


Feels Like: 54 °F
Forecast: 47 / 69 °F
Wind: 5 mph from Southeast

Location: St. Paul Downtown Holman Field

Current Time: Sep 17, 2014 at 5:00:07 AM

Latest Report: Sep 17, 2014 at 3:53 AM


Visibility: 10 mi

Pressure: 29.96 "Hg

Humidity: 80%

Dew point: 49 °F

Location of StillwaterLocation

Historic Weather in Stillwater — Graph

°F

Stillwater temperature yesterday

Maximum temperature yesterday: 66 °F (at 2:53 PM)
Minimum temperature yesterday: 40 °F (at 6:53 AM)
Average temperature yesterday: 54 °F

Past Weeks' High & Low Weather Summary

 TemperatureHumidityPressure
High83 °F (Sep 4, 1:53 PM)100% (Sep 13, 6:53 AM)30.45 "Hg (Sep 13, 6:53 AM)
Low37 °F (Sep 13, 6:53 AM)36% (Sep 7, 2:53 PM)29.62 "Hg (Sep 4, 4:53 AM)
Average60 °F73%30.04 "Hg
* Reported Sep 2 3:53 AM — Sep 17 3:53 AM, Stillwater, Weather by CustomWeather, © 2014

Note: Actual official high and low records may vary slightly from our data, if they occured in-between our weather recording intervals... More about our weather records

Advertising

Stillwater weather history for previous 24 hours

 ConditionsComfort  
Time TempWeatherWind HumidityBarometerVisibility
3:53 AM
Sep 17
55 °FOvercast.5 mph80%29.96 "Hg10 mi
2:53 AM54 °FOvercast.6 mph83%29.98 "Hg10 mi
1:53 AM54 °FOvercast.5 mph86%29.98 "Hg10 mi
12:53 AM54 °FOvercast.3 mph86%30.00 "Hg10 mi
11:53 PM
Sep 16
54 °FMostly cloudy.3 mph83%30.01 "Hg10 mi
10:53 PM54 °FPassing clouds.No wind83%30.02 "Hg10 mi
9:53 PM53 °FPassing clouds.No wind86%30.02 "Hg10 mi
8:53 PM53 °FClear.No wind86%30.03 "Hg10 mi
7:53 PM55 °FSunny.5 mph77%30.03 "Hg10 mi
6:53 PM62 °FSunny.6 mph54%30.03 "Hg10 mi
5:53 PM65 °FSunny.5 mph49%30.04 "Hg10 mi
4:53 PM66 °FSunny.8 mph45%30.06 "Hg10 mi
3:53 PM66 °FSunny.No wind42%30.07 "Hg10 mi
2:53 PM66 °FSunny.12 mph45%30.09 "Hg10 mi
1:53 PM65 °FSunny.14 mph45%30.11 "Hg10 mi
12:53 PM64 °FSunny.8 mph43%30.13 "Hg10 mi
11:53 AM62 °FSunny.9 mph50%30.15 "Hg10 mi
10:53 AM60 °FSunny.5 mph58%30.16 "Hg10 mi
9:53 AM56 °FSunny.3 mph65%30.19 "Hg10 mi
8:53 AM49 °FSunny.No wind84%30.20 "Hg8 mi
7:53 AM45 °FSunny.5 mph93%30.21 "Hg7 mi
6:53 AM40 °FClear.No wind100%30.21 "Hg9 mi
5:53 AM42 °FClear.3 mph96%30.21 "Hg10 mi
Weather by CustomWeather, © 2014

See weather overviewHow to use our weather pages